Overview Statistics Trail Chart Weather Telemetry Raw packets
 

This is the latest recevied weather packets stored in our database for station/object AJ1L. If no packets are shown the sender has not sent any weather packets the latest 10 day(s).

<< 23 24 25 26 27 28 29 >>
Time Temp. Humidity Pressure Rain* Wind** Luminosity Snow
1787882204 21.67° C 88% 1016.4 hPa 0 mm - - -
1787881205 21.67° C 88% 1016.6 hPa 0 mm - - -
1787880204 21.67° C 87% 1016.6 hPa 0 mm - - -
1787876207 22.22° C 83% 1016.6 hPa 0 mm - - -
1787875212 22.78° C 82% 1016.2 hPa 0 mm - - -
1787874205 23.33° C 79% 1016.1 hPa 0 mm - - -
1787873203 23.33° C 77% 1015.9 hPa 0 mm - - -
1787871206 23.89° C 76% 1016.1 hPa 0 mm - - -
1787870203 23.89° C 75% 1016.1 hPa 0 mm - - -
1787868203 24.44° C 74% 1016.6 hPa 0 mm - - -
1787867203 25° C 72% 1016.6 hPa 0 mm - - -
1787865207 25° C 66% 1016.9 hPa 0 mm - - -
1787864205 25.56° C 65% 1016.7 hPa 0 mm - - -
1787862203 26.11° C 63% 1017.1 hPa 0 mm - - -
1787861204 26.11° C 61% 1017.5 hPa 0 mm - - -
1787858204 27.78° C 56% 1017.1 hPa 0 mm - - -
1787856203 28.33° C 54% 1017.4 hPa 0 mm - - -
1787855203 28.33° C 56% 1016.8 hPa 0 mm - - -
1787854207 28.33° C 57% 1017.1 hPa 0 mm - - -
1787853203 28.33° C 58% 1017.1 hPa 0 mm - - -
1787852206 28.33° C 55% 1017.3 hPa 0 mm - - -
1787850203 27.78° C 64% 1017.4 hPa 0 mm - - -
1787847234 27.22° C 60% 1017.9 hPa 0 mm - - -
1787846205 27.22° C 63% 1018 hPa 0 mm - - -
1787844202 26.11° C 66% 1018.1 hPa 0 mm - - -

* Rain latest hour (hover to see other rain measurements)
** Current wind speed in m/s (hover to see current wind gust speed)